Regional Weather Roundup
Issued by NWS

Home | Current Version | Previous Version | Text Only | Print | Product List | Glossary Off
Versions: 1 2 3 4 5 6 7 8 9 10 11 12 13 14 15 16 17 18 19 20 21 22 23 24 25 26 27 28 29 30 31 32 33 34 35 36 37 38 39 40 41 42 43 44 45 46 47 48 49 50

000
ASUS43 KLMK 170910
RWRKY
KENTUCKY REGIONAL WEATHER ROUNDUP
NATIONAL WEATHER SERVICE LOUISVILLE KY
400 AM EST SUN DEC 17 2017

NOTE "FAIR" INDICATES FEW OR NO CLOUDS BELOW 12,000 FEET
WITH NO SIGNIFICANT WEATHER AND/OR OBSTRUCTIONS TO VISIBILITY.

KYZ001>023-026-027-061>063-070>075-171000-
WESTERN AND SOUTH CENTRAL KENTUCKY

CITY           SKY/WX    TMP DP  RH WIND       PRES   REMARKS
PADUCAH        CLOUDY    44  30  57 S3        30.14S
HENDERSON      MOCLDY    42  32  67 S5        30.16F
OWENSBORO      CLOUDY    41  31  67 SE5       30.18S
HOPKINSVILLE   CLOUDY    41  30  64 SE3       30.17R
BOWLING GREEN  CLOUDY    41  32  70 E3        30.20F
GLASGOW        CLOUDY    40  30  66 CALM      30.20F
$$

KYZ024-025-028>034-038-045-046-053-171000-
NORTH CENTRAL KENTUCKY

CITY           SKY/WX    TMP DP  RH WIND       PRES   REMARKS
LOUISVILLE/SDF CLOUDY    41  30  65 SE7       30.19S
LOUISVILLE/LOU CLOUDY    40  31  70 S8        30.19F WCI  34
FORT KNOX      CLOUDY    38  30  73 S3        30.17F
$$

KYZ035>037-039>044-047>052-055>060-089>105-171000-
NORTHEAST KENTUCKY

CITY           SKY/WX    TMP DP  RH WIND       PRES   REMARKS
LEXINGTON      CLOUDY    39  29  67 S9        30.20S WCI  33
COVINGTON      CLOUDY    38  30  73 S9        30.17R WCI  31
FRANKFORT      CLOUDY    40  28  62 S5        30.18S
$$

KYZ054-064>069-076>088-106>120-171000-
SOUTHEAST KENTUCKY

CITY           SKY/WX    TMP DP  RH WIND       PRES   REMARKS
JACKSON        CLOUDY    37  27  67 SW5       30.23S WCI  33
LONDON         CLOUDY    31  27  85 CALM      30.24R
SOMERSET       CLOUDY    36  28  75 S6        30.25S WCI  31
MIDDLESBORO    CLOUDY    29  27  92 CALM      30.26S
MONTICELLO     CLOUDY    35  30  82 N12       30.25R WCI  27
$$




USA.gov is the U.S. government's official web portal to all federal, state and local government web resources and services.